Sacramento / Mc Clellan, CA

3:53 PM PST on December 17, 2017 (GMT -0800)
McClellan

Weather History for KMCC - September, 2013

Change the Weather History Date:

Sunday, September 15, 2013

  Actual Average (KMHR) Record (KMHR)
Temperature  
Mean Temperature 71 °F -  
Max Temperature 87 °F 85 °F 91 °F (2004)
Min Temperature 55 °F 56 °F 48 °F (2006)
Cooling Degree Days 6    
Growing Degree Days 21 (Base 50)    
Moisture  
Dew Point 52 °F    
Average Humidity 58    
Maximum Humidity 82    
Minimum Humidity 24    
Precipitation  
Precipitation 0.00 in - - ()
Sea Level Pressure  
Sea Level Pressure 29.78 in    
Wind  
Wind Speed 11 mph (SSE)    
Max Wind Speed 15 mph    
Max Gust Speed 23 mph    
Visibility 10 miles    
Events      
Averages and records for this station are not official NWS values.
T = Trace of Precipitation, MM = Missing Value Source: NWS Daily Summary

Daily Weather History Graph

Daily Weather History Graph

Search for Another Location

Airport or City:

Trip Planner

Search our weather history database for the weather conditions in past years. The results will help you decide how hot, cold, wet, or windy it might be!

Date:

Astronomy

Sep. 15, 2013 Rise Set
Actual Time 6:47 AM PDT 7:13 PM PDT
Civil Twilight 6:20 AM PDT 7:39 PM PDT
Nautical Twilight 5:49 AM PDT 8:11 PM PDT
Astronomical Twilight 5:17 AM PDT 8:43 PM PDT
Moon 4:42 PM PDT (9/15) 2:33 AM PDT (9/15)
Length of Visible Light 13h 19m
Length of Day
12h 25m
Waxing Gibbous, 83% of the Moon is Illuminated
Sep 15
Waxing Gibbous
Sep 19
Full
Sep 26
Last Quarter
Oct 4
New
Oct 11
First Quarter

Hourly Weather History & Observations

Time (PDT) Temp. Dew Point Humidity Pressure Visibility Wind Dir Wind Speed Gust Speed Precip Events Conditions
12:15 AM 64.4 °F 51.8 °F 64% 29.72 in 10.0 mi SSE 11.5 mph - N/A   Clear
12:35 AM 62.6 °F 51.8 °F 68% 29.73 in 10.0 mi SSE 10.4 mph - N/A   Clear
12:55 AM 62.6 °F 51.8 °F 68% 29.73 in 10.0 mi SSE 11.5 mph - N/A   Clear
1:15 AM 62.6 °F 51.8 °F 68% 29.73 in 10.0 mi SE 10.4 mph - N/A   Clear
1:35 AM 62.6 °F 51.8 °F 68% 29.73 in 10.0 mi SSE 12.7 mph - N/A   Clear
1:55 AM 60.8 °F 51.8 °F 72% 29.73 in 10.0 mi SSE 10.4 mph - N/A   Clear
2:15 AM 60.8 °F 51.8 °F 72% 29.74 in 10.0 mi SSE 12.7 mph - N/A   Clear
2:35 AM 60.8 °F 51.8 °F 72% 29.74 in 10.0 mi SSE 12.7 mph - N/A   Clear
2:55 AM 59.0 °F 51.8 °F 77% 29.74 in 10.0 mi SSE 12.7 mph - N/A   Clear
3:15 AM 59.0 °F 51.8 °F 77% 29.73 in 10.0 mi SE 12.7 mph - N/A   Clear
3:35 AM 59.0 °F 51.8 °F 77% 29.74 in 10.0 mi SSE 13.8 mph - N/A   Clear
3:55 AM 59.0 °F 51.8 °F 77% 29.74 in 10.0 mi SSE 11.5 mph - N/A   Clear
4:15 AM 59.0 °F 51.8 °F 77% 29.74 in 10.0 mi SE 13.8 mph - N/A   Clear
4:35 AM 59.0 °F 51.8 °F 77% 29.75 in 10.0 mi SSE 11.5 mph - N/A   Clear
4:55 AM 57.2 °F 51.8 °F 82% 29.75 in 10.0 mi SSE 12.7 mph - N/A   Clear
5:15 AM 57.2 °F 51.8 °F 82% 29.75 in 10.0 mi SE 11.5 mph - N/A   Clear
5:35 AM 57.2 °F 51.8 °F 82% 29.76 in 10.0 mi SE 12.7 mph - N/A   Clear
5:55 AM 57.2 °F 50.0 °F 77% 29.77 in 10.0 mi SE 11.5 mph - N/A   Clear
6:15 AM 57.2 °F 50.0 °F 77% 29.78 in 10.0 mi SSE 10.4 mph - N/A   Clear
6:35 AM 55.4 °F 50.0 °F 82% 29.78 in 10.0 mi SE 10.4 mph - N/A   Clear
6:55 AM 57.2 °F 51.8 °F 82% 29.79 in 9.0 mi SSE 9.2 mph - N/A   Clear
7:15 AM 57.2 °F 51.8 °F 82% 29.80 in 10.0 mi SE 10.4 mph - N/A   Clear
7:35 AM 57.2 °F 51.8 °F 82% 29.80 in 10.0 mi SE 11.5 mph - N/A   Clear
7:55 AM 59.0 °F 51.8 °F 77% 29.80 in 10.0 mi SSE 12.7 mph - N/A   Clear
8:15 AM 59.0 °F 53.6 °F 82% 29.80 in 10.0 mi SE 10.4 mph - N/A   Clear
8:35 AM 60.8 °F 53.6 °F 77% 29.81 in 10.0 mi SSE 12.7 mph - N/A   Clear
8:55 AM 62.6 °F 53.6 °F 72% 29.81 in 10.0 mi SE 11.5 mph - N/A   Clear
9:15 AM 64.4 °F 53.6 °F 68% 29.82 in 10.0 mi SSE 11.5 mph - N/A   Clear
9:35 AM 64.4 °F 53.6 °F 68% 29.82 in 10.0 mi South 10.4 mph - N/A   Clear
9:55 AM 66.2 °F 53.6 °F 64% 29.83 in 10.0 mi South 10.4 mph - N/A   Clear
10:15 AM 66.2 °F 53.6 °F 64% 29.83 in 10.0 mi South 10.4 mph - N/A   Clear
10:35 AM 68.0 °F 53.6 °F 60% 29.83 in 10.0 mi SE 11.5 mph 18.4 mph N/A   Clear
10:55 AM 71.6 °F 53.6 °F 53% 29.83 in 10.0 mi South 12.7 mph - N/A   Clear
11:15 AM 71.6 °F 53.6 °F 53% 29.83 in 10.0 mi SE 12.7 mph 16.1 mph N/A   Clear
11:35 AM 73.4 °F 53.6 °F 50% 29.83 in 10.0 mi South 12.7 mph 23.0 mph N/A   Clear
11:55 AM 73.4 °F 53.6 °F 50% 29.83 in 10.0 mi South 12.7 mph 17.3 mph N/A   Clear
12:15 PM 75.2 °F 53.6 °F 47% 29.83 in 10.0 mi South 11.5 mph 16.1 mph N/A   Clear
12:35 PM 75.2 °F 53.6 °F 47% 29.83 in 10.0 mi South 9.2 mph - N/A   Clear
12:55 PM 78.8 °F 51.8 °F 39% 29.82 in 10.0 mi South 10.4 mph - N/A   Clear
1:15 PM 78.8 °F 50.0 °F 36% 29.82 in 10.0 mi SSW 5.8 mph - N/A   Clear
1:35 PM 80.6 °F 50.0 °F 34% 29.81 in 10.0 mi South 6.9 mph - N/A   Clear
1:55 PM 82.4 °F 50.0 °F 32% 29.81 in 10.0 mi SSW 4.6 mph - N/A   Clear
2:15 PM 82.4 °F 48.2 °F 30% 29.80 in 10.0 mi South 8.1 mph - N/A   Clear
2:35 PM 84.2 °F 48.2 °F 29% 29.80 in 10.0 mi WSW 3.5 mph - N/A   Clear
2:55 PM 84.2 °F 48.2 °F 29% 29.79 in 10.0 mi SSW 9.2 mph - N/A   Clear
3:15 PM 86.0 °F 48.2 °F 27% 29.79 in 10.0 mi South 5.8 mph - N/A   Clear
3:35 PM 86.0 °F 48.2 °F 27% 29.78 in 9.0 mi South 6.9 mph - N/A   Clear
3:55 PM 86.0 °F 46.4 °F 25% 29.78 in 10.0 mi SW 4.6 mph - N/A   Clear
4:15 PM 86.0 °F 46.4 °F 25% 29.77 in 8.0 mi SSE 9.2 mph - N/A   Clear
4:35 PM 87.8 °F 46.4 °F 24% 29.77 in 10.0 mi South 9.2 mph - N/A   Clear
4:55 PM 86.0 °F 51.8 °F 31% 29.76 in 10.0 mi SSE 9.2 mph - N/A   Clear
5:15 PM 86.0 °F 50.0 °F 29% 29.76 in 10.0 mi South 10.4 mph - N/A   Clear
5:35 PM 86.0 °F 50.0 °F 29% 29.76 in 10.0 mi SSE 9.2 mph - N/A   Clear
5:55 PM 84.2 °F 50.0 °F 30% 29.76 in 10.0 mi SSW 9.2 mph - N/A   Clear
6:15 PM 82.4 °F 51.8 °F 35% 29.76 in 10.0 mi South 12.7 mph - N/A   Clear
6:35 PM 80.6 °F 51.8 °F 37% 29.76 in 10.0 mi South 11.5 mph - N/A   Clear
6:55 PM 78.8 °F 51.8 °F 39% 29.77 in 10.0 mi SSW 13.8 mph - N/A   Clear
7:15 PM 77.0 °F 51.8 °F 41% 29.77 in 10.0 mi SSW 10.4 mph - N/A   Clear
7:35 PM 75.2 °F 53.6 °F 47% 29.77 in 10.0 mi SSW 9.2 mph - N/A   Clear
7:55 PM 73.4 °F 53.6 °F 50% 29.77 in 10.0 mi South 9.2 mph - N/A   Clear
8:15 PM 73.4 °F 53.6 °F 50% 29.78 in 10.0 mi South 15.0 mph - N/A   Clear
8:35 PM 71.6 °F 53.6 °F 53% 29.78 in 10.0 mi South 9.2 mph - N/A   Clear
8:55 PM 69.8 °F 53.6 °F 56% 29.79 in 10.0 mi South 12.7 mph - N/A   Clear
9:15 PM 68.0 °F 55.4 °F 64% 29.80 in 10.0 mi South 9.2 mph - N/A   Clear
9:35 PM 68.0 °F 55.4 °F 64% 29.80 in 10.0 mi South 8.1 mph - N/A   Clear
9:55 PM 66.2 °F 55.4 °F 68% 29.81 in 10.0 mi SSE 10.4 mph - N/A   Clear
10:15 PM 66.2 °F 55.4 °F 68% 29.81 in 10.0 mi SSE 6.9 mph - N/A   Clear
10:35 PM 64.4 °F 55.4 °F 73% 29.82 in 10.0 mi SSE 10.4 mph - N/A   Clear
10:55 PM 64.4 °F 55.4 °F 73% 29.82 in 10.0 mi SSE 9.2 mph - N/A   Clear
11:15 PM 64.4 °F 55.4 °F 73% 29.82 in 10.0 mi SE 9.2 mph - N/A   Clear
11:35 PM 64.4 °F 55.4 °F 73% 29.83 in 10.0 mi SE 10.4 mph - N/A   Clear
11:55 PM 64.4 °F 55.4 °F 73% 29.83 in 10.0 mi SE 10.4 mph - N/A   Clear